Showing default

KINEIS-4D, 63302

Orbit data source: Space-Track

KINEIS-4D, 63302 is a French payload satellite in SSO that was launched on Tue, 18 Mar 2025 UTC via an ELECTRON launch vehicle from the Rocket Lab Launch Complex (RLLC). Payload-class satellites include a variety of spacecraft equipped with specific instruments for various scientific and technological missions. These include communications satellites like Starlink; space stations such as the ISS; scientific satellites like the Hubble; Earth observation satellites from companies like Planet Labs, Umbra, and HawkEye 360; GPS; miniature CubeSats for education and research; and military/defense satellites.

Loading next visibility...
Identifier
63302, 2025-056C
Orbit
SSO
Last TLE update
12 hours ago
Origin
Manufacturer
KINEIS
Mission
Operational Commercial Communications
Bus & Motor
CUBESAT 16U, Unknown motor
Mass
28 kg wet, 28 kg dry
Launch date (UTC)
2025-03-18 (2 months ago)
Launch vehicle
ELECTRON
Launch site
Rocket Lab Launch Complex (RLLC)
Object type
Payload
Rocket body
Debris
Shape & HBR
Box + 2 Pan + 1 Ant, 1.6 m
Radar Cross Section
0.229 m², Medium (>0.1 m² and < 1m²)

Expand to show TLE details & history

TLE from 12 hours ago
0 KINEIS-4D
1 63302U 25056C   25128.77686965  .00002988  00000-0  45103-3 0  9997
2 63302  97.9786 255.3016 0002069 123.7842 236.3564 14.75058044  7620
Epoch: 2025-05-08T18:38Z
Definitive object data (Epoch: 2025-05-08T18:38:41.537Z)
Latitude
-0.00007°
Longitude
108.78603°
Altitude
648.785 km
Speed
7.533 km/s
True Right ascension
17h 01m 12s
True Declination
0° 00' 00"
Sunlit
Object was in full shadow at TLE epoch
Visualization TLE readout
Latitude
66.37539°
Longitude
90.68189°
Altitude
655.586 km
Speed
7.536 km/s
Apparent Right ascension
00h 57m 02s
Apparent Declination
43° 58' 53"
Sunlit
Object is in daylight
Visualization observer readout
Local Sidereal Time
14:29:35
Azimuth
16.458° NNE
Elevation
-3.549°
Doppler factor
1
Orbital elements
Apogee altitude
643.47 km
Perigee altitude
640.566 km
Semi-major axis
7,020.155 km
Eccentricity
0.0002069
Inclination
97.9786°
RAAN
255.3016°
Arg. of periapsis
123.7842°
True anomaly
236.33667°
Mean anomaly
236.3564°
Eccentric anomaly
236.34653°
Mean motion
3.68997 °/min
BSTAR
0.00045103
Orbital period
97.56 mins
Loading maneuver chart data...
Loading SW <> Apogee altitude chart data...
Loading historical data...
Loading historical data...
Loading historical data...
Loading historical data...
Loading historical data...
Loading historical data...
Loading historical data...

KINEIS-4D Visibility forecast

Observer location: undefined°, undefined°

Span
Click to sort rows by Start time (UTC) header in descending order
Start Az.
Max El. time (UTC)
Max El. Az.
Max El.
End time (UTC)
End Az.
7 mins2025-05-09 07:47:46.626Z135.747° SSE2025-05-09 07:51:46.626Z65.158° ENE30.435°2025-05-09 07:54:46.626Z10.386° NNE
4 mins2025-05-09 09:26:46.626Z240.141° WSW2025-05-09 09:28:46.626Z275.264° WNW18.207°2025-05-09 09:30:46.626Z305.46° NW
7 mins2025-05-09 21:16:46.626Z14.417° NNE2025-05-09 21:19:46.626Z177.347° S44.281°2025-05-09 21:23:46.626Z192.54° SSW
|